TimeEST,TemperatureF,Dew PointF,Humidity,Sea Level PressureIn,VisibilityMPH,Wind Direction,Wind SpeedMPH,Gust SpeedMPH,PrecipitationIn,Events,Conditions,WindDirDegrees,DateUTC
12:48 AM,6.8,1.4,79,29.79,10.0,Calm,Calm,-,N/A,,Mostly Cloudy,0,2013-02-17 05:48:00
12:53 AM,6.1,1.0,80,29.89,10.0,Calm,Calm,-,N/A,,Mostly Cloudy,0,2013-02-17 05:53:00
1:53 AM,12.9,5.0,71,29.88,10.0,WNW,4.6,-,N/A,,Overcast,290,2013-02-17 06:53:00
2:53 AM,12.9,5.0,71,29.87,10.0,West,6.9,-,N/A,,Scattered Clouds,280,2013-02-17 07:53:00
3:53 AM,10.0,3.9,76,29.88,10.0,Calm,Calm,-,N/A,,Partly Cloudy,0,2013-02-17 08:53:00
4:08 AM,10.0,3.9,76,29.78,8.0,Variable,3.5,-,N/A,,Mostly Cloudy,0,2013-02-17 09:08:00
4:16 AM,10.9,5.0,77,29.78,1.8,West,5.8,-,0.00,Snow,Light Snow,280,2013-02-17 09:16:00
4:34 AM,12.0,7.0,80,29.78,2.0,WNW,3.5,-,0.00,Snow,Light Snow,300,2013-02-17 09:34:00
4:42 AM,12.0,7.0,80,29.78,1.5,NW,6.9,-,0.00,Snow,Light Snow,310,2013-02-17 09:42:00
4:51 AM,12.2,6.8,79,29.78,2.5,WNW,6.9,-,0.00,Snow,Light Snow,300,2013-02-17 09:51:00
4:53 AM,12.0,7.0,80,29.88,2.5,WNW,6.9,-,0.00,Snow,Light Snow,300,2013-02-17 09:53:00
5:41 AM,12.0,8.1,84,29.79,1.5,NW,5.8,-,0.00,Snow,Light Snow,310,2013-02-17 10:41:00
5:53 AM,12.9,8.1,81,29.89,1.2,NW,5.8,-,0.00,Snow,Light Snow,310,2013-02-17 10:53:00
6:31 AM,12.9,8.1,81,29.79,0.8,WNW,6.9,-,0.00,Snow,Light Snow,300,2013-02-17 11:31:00
6:50 AM,14.0,8.6,79,29.80,0.8,WNW,6.9,-,0.00,Snow,Light Snow,300,2013-02-17 11:50:00
6:53 AM,14.0,9.0,80,29.90,0.8,WNW,6.9,-,0.00,Snow,Light Snow,300,2013-02-17 11:53:00
7:00 AM,14.0,9.0,80,29.80,1.2,NW,5.8,-,0.00,Snow,Light Snow,310,2013-02-17 12:00:00
7:09 AM,14.0,9.0,80,29.80,3.0,NW,6.9,-,0.00,Snow,Light Snow,310,2013-02-17 12:09:00
7:21 AM,14.0,8.1,77,29.81,1.5,NW,6.9,-,0.00,Snow,Light Snow,310,2013-02-17 12:21:00
7:31 AM,12.9,8.1,81,29.81,1.0,NW,6.9,-,0.00,Snow,Light Snow,320,2013-02-17 12:31:00
7:53 AM,14.0,9.0,80,29.91,1.0,NNW,10.4,-,0.00,Snow,Light Snow,330,2013-02-17 12:53:00
8:16 AM,12.9,8.1,81,29.82,1.5,NW,9.2,-,0.00,Snow,Light Snow,320,2013-02-17 13:16:00
8:20 AM,12.9,8.1,81,29.82,3.0,NNW,9.2,-,0.00,Snow,Light Snow,330,2013-02-17 13:20:00
8:40 AM,14.0,6.1,71,29.82,6.0,NW,17.3,23.0,0.00,Snow,Light Snow,320,2013-02-17 13:40:00
8:53 AM,14.0,7.0,74,29.93,6.0,NW,17.3,24.2,0.00,Snow,Light Snow,320,2013-02-17 13:53:00
9:53 AM,14.0,5.0,67,29.94,2.5,NW,16.1,19.6,0.00,Snow,Light Snow,310,2013-02-17 14:53:00
10:09 AM,15.1,5.0,64,29.84,7.0,NNW,13.8,25.3,0.00,Snow,Light Snow,340,2013-02-17 15:09:00
10:53 AM,15.1,3.9,61,29.97,6.0,NNW,17.3,27.6,0.00,,Overcast,330,2013-02-17 15:53:00
11:48 AM,15.8,3.2,58,29.86,4.0,NW,19.6,26.5,0.00,Snow,Light Snow,310,2013-02-17 16:48:00
11:53 AM,16.0,3.0,57,29.98,4.0,WNW,20.7,27.6,0.00,Snow,Light Snow,300,2013-02-17 16:53:00
12:06 PM,14.0,3.9,64,29.87,2.5,NNW,17.3,-,0.00,Snow,Light Snow,330,2013-02-17 17:06:00
12:17 PM,14.0,3.9,64,29.87,2.0,WNW,17.3,-,0.00,Snow,Light Snow,300,2013-02-17 17:17:00
12:29 PM,14.0,1.9,59,29.86,2.5,WNW,18.4,32.2,0.00,Snow,Light Snow,300,2013-02-17 17:29:00
12:38 PM,16.0,1.9,54,29.86,3.0,WNW,21.9,33.4,0.00,,Overcast,300,2013-02-17 17:38:00
12:53 PM,14.0,-0.0,54,29.98,4.0,WNW,23.0,31.1,0.00,,Mostly Cloudy,290,2013-02-17 17:53:00
1:31 PM,14.0,3.9,64,29.87,2.5,WNW,17.3,29.9,0.00,Snow,Light Snow,300,2013-02-17 18:31:00
1:35 PM,14.0,3.9,64,29.87,3.0,NW,18.4,29.9,0.00,Snow,Light Snow,310,2013-02-17 18:35:00
1:40 PM,12.9,3.9,67,29.87,1.8,NW,19.6,29.9,0.00,Snow,Light Snow,320,2013-02-17 18:40:00
1:53 PM,12.9,3.9,67,29.98,1.0,NW,18.4,26.5,0.00,Snow,Light Snow,310,2013-02-17 18:53:00
2:32 PM,12.9,5.0,71,29.88,0.8,NW,21.9,27.6,0.00,Snow,Light Snow,310,2013-02-17 19:32:00
2:53 PM,12.9,3.0,65,29.99,1.2,WNW,21.9,31.1,0.00,Snow,Light Snow,300,2013-02-17 19:53:00
3:00 PM,12.9,1.9,62,29.88,1.2,WNW,20.7,29.9,0.00,Snow,Light Snow,300,2013-02-17 20:00:00
3:30 PM,12.9,1.0,59,29.90,1.0,WNW,20.7,36.8,0.00,Snow,Light Snow,300,2013-02-17 20:30:00
3:37 PM,12.9,1.0,59,29.90,3.0,NW,19.6,36.8,0.00,Snow,Blowing Snow,310,2013-02-17 20:37:00
3:50 PM,12.2,1.4,62,29.90,2.0,WNW,23.0,31.1,0.00,Snow,Light Snow,300,2013-02-17 20:50:00
3:53 PM,12.9,1.0,59,30.01,3.0,WNW,19.6,31.1,0.00,Snow,Blowing Snow,300,2013-02-17 20:53:00
4:05 PM,14.0,1.9,59,29.90,2.0,WNW,18.4,29.9,0.00,Snow,Light Snow,300,2013-02-17 21:05:00
4:23 PM,14.0,1.9,59,29.90,3.0,WNW,19.6,31.1,0.00,Snow,Light Snow,290,2013-02-17 21:23:00
4:27 PM,14.0,1.9,59,29.90,2.0,WNW,24.2,31.1,0.00,Snow,Light Snow,290,2013-02-17 21:27:00
4:29 PM,14.0,1.9,59,29.91,1.8,WNW,20.7,31.1,0.00,Snow,Light Snow,300,2013-02-17 21:29:00
4:40 PM,14.0,3.0,62,29.91,3.0,NW,12.7,29.9,0.00,Snow,Light Snow,310,2013-02-17 21:40:00
4:53 PM,12.9,1.9,62,30.02,5.0,West,18.4,32.2,0.00,Snow,Blowing Snow,280,2013-02-17 21:53:00
4:59 PM,12.9,1.9,62,29.91,1.8,WNW,23.0,32.2,0.00,Snow,Light Snow,300,2013-02-17 21:59:00
5:12 PM,12.0,3.0,67,29.92,0.8,WNW,20.7,27.6,0.00,Snow,Light Snow,290,2013-02-17 22:12:00
5:53 PM,12.0,3.9,70,30.04,1.0,WNW,16.1,-,0.00,Snow,Light Snow,300,2013-02-17 22:53:00
6:36 PM,10.9,3.0,70,29.95,3.0,WNW,17.3,21.9,0.00,Snow,Light Snow,300,2013-02-17 23:36:00
6:53 PM,10.9,3.0,70,30.06,5.0,WNW,16.1,25.3,0.00,,Overcast,300,2013-02-17 23:53:00
7:53 PM,10.9,3.9,73,30.09,5.0,WNW,13.8,-,0.00,,Haze,300,2013-02-18 00:53:00
8:42 PM,10.9,3.9,73,30.00,3.0,WNW,11.5,-,0.00,Snow,Light Snow,300,2013-02-18 01:42:00
8:53 PM,10.9,3.9,73,30.12,2.5,NW,11.5,-,0.00,Snow,Light Snow,310,2013-02-18 01:53:00
9:00 PM,10.9,3.9,73,30.01,4.0,WNW,11.5,-,0.00,Snow,Light Snow,300,2013-02-18 02:00:00
9:10 PM,12.0,5.0,73,30.01,2.5,WNW,10.4,-,0.00,Snow,Light Snow,300,2013-02-18 02:10:00
9:24 PM,10.9,5.0,77,30.02,2.0,WNW,9.2,-,0.00,Snow,Light Snow,300,2013-02-18 02:24:00
9:42 PM,12.0,6.1,77,30.02,1.8,WNW,6.9,-,0.00,Snow,Light Snow,300,2013-02-18 02:42:00
9:53 PM,12.0,6.1,77,30.14,1.5,NW,10.4,-,0.00,Snow,Light Snow,310,2013-02-18 02:53:00
10:19 PM,12.0,5.0,73,30.04,2.5,WNW,9.2,-,0.00,Snow,Light Snow,290,2013-02-18 03:19:00
10:53 PM,10.9,5.0,77,30.17,2.5,NW,11.5,-,0.00,Snow,Light Snow,310,2013-02-18 03:53:00
10:59 PM,10.9,5.0,77,30.05,4.0,WNW,11.5,-,0.00,Snow,Light Snow,300,2013-02-18 03:59:00
11:12 PM,10.9,5.0,77,30.05,3.0,WNW,10.4,-,0.00,Snow,Light Snow,300,2013-02-18 04:12:00
11:25 PM,10.9,5.0,77,30.05,2.5,NW,12.7,-,0.00,Snow,Light Snow,310,2013-02-18 04:25:00